| time (UTC) | temp C | wind direction | speed KPH | gust KPH | rain 1hr cm | rain 24hr cm | rain mn cm | humidity % | barometer mb |
| 20260905212030 | 26 | 0.0 | 0.0 | 0.00 | 0.00 | 0.00 | 60 | 1019.2 | |
| 20260905211530 | 26 | 0.0 | 0.0 | 0.00 | 0.00 | 0.00 | 60 | 1019.1 | |
| 20260905211119 | 26 | 0.0 | 0.0 | 0.00 | 0.00 | 0.00 | 60 | 1019.1 | |
| 20260905210033 | 26 | 0.0 | 0.0 | 0.00 | 0.00 | 0.00 | 61 | 1019.0 | |
| 20260905205532 | 26 | 0.0 | 0.0 | 0.00 | 0.00 | 0.00 | 61 | 1019.1 | |
| 20260905205019 | 26 | 0.0 | 0.0 | 0.00 | 0.00 | 0.00 | 60 | 1019.0 | |
| 20260905204546 | 26 | 0.0 | 0.0 | 0.00 | 0.00 | 0.00 | 59 | 1018.9 | |
| 20260905204011 | 26 | 0.0 | 0.0 | 0.00 | 0.00 | 0.00 | 58 | 1018.8 | |
| 20260905203518 | 26 | 0.0 | 0.0 | 0.00 | 0.00 | 0.00 | 58 | 1018.7 | |
| 20260905202528 | 26 | 0.0 | 0.0 | 0.00 | 0.00 | 0.00 | 57 | 1018.7 | |
| 20260905202050 | 26 | 0.0 | 0.0 | 0.00 | 0.00 | 0.00 | 57 | 1018.6 | |
| 20260905201514 | 27 | 0.0 | 0.0 | 0.00 | 0.00 | 0.00 | 57 | 1018.5 | |
| 20260905201014 | 27 | 0.0 | 0.0 | 0.00 | 0.00 | 0.00 | 56 | 1018.5 | |
| 20260905200521 | 27 | 0.0 | 0.0 | 0.00 | 0.00 | 0.00 | 56 | 1018.5 | |
| 20260905200054 | 27 | 0.0 | 0.0 | 0.00 | 0.00 | 0.00 | 55 | 1018.4 | |
| 20260905195529 | 27 | 0.0 | 0.0 | 0.00 | 0.00 | 0.00 | 55 | 1018.4 | |
| 20260905194027 | 28 | 263 | 8.0 | 11.3 | 0.00 | 0.00 | 0.00 | 54 | 1018.1 |
| 20260905193551 | 28 | 190 | 8.0 | 11.3 | 0.00 | 0.00 | 0.00 | 53 | 1018.0 |
| 20260905193018 | 28 | 190 | 6.4 | 14.5 | 0.00 | 0.00 | 0.00 | 53 | 1018.0 |
| 20260905192525 | 28 | 190 | 11.3 | 16.1 | 0.00 | 0.00 | 0.00 | 53 | 1017.9 |
| 20260905191542 | 29 | 278 | 8.0 | 16.1 | 0.00 | 0.00 | 0.00 | 52 | 1017.7 |
| 20260905191028 | 29 | 270 | 8.0 | 16.1 | 0.00 | 0.00 | 0.00 | 52 | 1017.7 |
| 20260905190516 | 29 | 277 | 4.8 | 12.9 | 0.00 | 0.00 | 0.00 | 52 | 1017.7 |
| 20260905185539 | 30 | 295 | 9.7 | 12.9 | 0.00 | 0.00 | 0.00 | 50 | 1017.6 |
| 20260905185053 | 30 | 311 | 8.0 | 12.9 | 0.00 | 0.00 | 0.00 | 49 | 1017.5 |
| 20260905184514 | 30 | 281 | 4.8 | 12.9 | 0.00 | 0.00 | 0.00 | 46 | 1017.5 |
| 20260905184038 | 30 | 226 | 6.4 | 17.7 | 0.00 | 0.00 | 0.00 | 43 | 1017.5 |
| 20260905183525 | 30 | 228 | 9.7 | 19.3 | 0.00 | 0.00 | 0.00 | 40 | 1017.5 |
| 20260905183013 | 30 | 242 | 9.7 | 19.3 | 0.00 | 0.00 | 0.00 | 39 | 1017.4 |
| 20260905182514 | 31 | 243 | 8.0 | 22.5 | 0.00 | 0.00 | 0.00 | 39 | 1017.4 |
| 20260905182022 | 31 | 255 | 14.5 | 27.4 | 0.00 | 0.00 | 0.00 | 38 | 1017.4 |
| 20260905181550 | 31 | 261 | 17.7 | 27.4 | 0.00 | 0.00 | 0.00 | 38 | 1017.4 |
| 20260905181013 | 31 | 258 | 16.1 | 22.5 | 0.00 | 0.00 | 0.00 | 38 | 1017.3 |
| 20260905180521 | 31 | 268 | 16.1 | 24.1 | 0.00 | 0.00 | 0.00 | 38 | 1017.3 |
| 20260905180023 | 31 | 226 | 19.3 | 24.1 | 0.00 | 0.00 | 0.00 | 38 | 1017.3 |
| 20260905175524 | 31 | 272 | 16.1 | 25.7 | 0.00 | 0.00 | 0.00 | 38 | 1017.3 |
| 20260905175011 | 31 | 245 | 12.9 | 22.5 | 0.00 | 0.00 | 0.00 | 38 | 1017.4 |
| 20260905174547 | 31 | 190 | 14.5 | 29.0 | 0.00 | 0.00 | 0.00 | 38 | 1017.4 |
| 20260905174030 | 31 | 244 | 12.9 | 30.6 | 0.00 | 0.00 | 0.00 | 38 | 1017.3 |
| 20260905173537 | 31 | 257 | 22.5 | 30.6 | 0.00 | 0.00 | 0.00 | 38 | 1017.3 |
| 20260905173045 | 31 | 266 | 14.5 | 33.8 | 0.00 | 0.00 | 0.00 | 38 | 1017.3 |
| 20260905172525 | 31 | 251 | 17.7 | 33.8 | 0.00 | 0.00 | 0.00 | 38 | 1017.4 |
| 20260905172034 | 31 | 279 | 19.3 | 29.0 | 0.00 | 0.00 | 0.00 | 37 | 1017.4 |
| 20260905171514 | 32 | 190 | 20.9 | 29.0 | 0.00 | 0.00 | 0.00 | 37 | 1017.3 |
| 20260905171041 | 33 | 266 | 19.3 | 25.7 | 0.00 | 0.00 | 0.00 | 35 | 1017.2 |
| 20260905170529 | 33 | 248 | 8.0 | 19.3 | 0.00 | 0.00 | 0.00 | 36 | 1017.2 |
| 20260905170011 | 35 | 266 | 12.9 | 19.3 | 0.00 | 0.00 | 0.00 | 35 | 1017.0 |
| 20260905165520 | 35 | 145 | 3.2 | 22.5 | 0.00 | 0.00 | 0.00 | 33 | 1017.0 |
| 20260905165020 | 35 | 283 | 16.1 | 22.5 | 0.00 | 0.00 | 0.00 | 31 | 1016.9 |
| 20260905164524 | 35 | 258 | 14.5 | 20.9 | 0.00 | 0.00 | 0.00 | 32 | 1016.8 |
| 20260905164017 | 35 | 220 | 14.5 | 20.9 | 0.00 | 0.00 | 0.00 | 32 | 1016.8 |
| 20260905163551 | 35 | 255 | 11.3 | 22.5 | 0.00 | 0.00 | 0.00 | 32 | 1016.9 |
| 20260905162513 | 35 | 272 | 16.1 | 24.1 | 0.00 | 0.00 | 0.00 | 31 | 1016.9 |
| 20260905162021 | 35 | 247 | 6.4 | 17.7 | 0.00 | 0.00 | 0.00 | 32 | 1016.8 |
| 20260905161529 | 35 | 249 | 6.4 | 22.5 | 0.00 | 0.00 | 0.00 | 32 | 1016.8 |
| 20260905161015 | 35 | 226 | 14.5 | 22.5 | 0.00 | 0.00 | 0.00 | 31 | 1016.8 |
| 20260905160524 | 36 | 272 | 11.3 | 17.7 | 0.00 | 0.00 | 0.00 | 31 | 1016.8 |
| 20260905160032 | 36 | 265 | 11.3 | 16.1 | 0.00 | 0.00 | 0.00 | 31 | 1016.8 |
| 20260905155533 | 35 | 195 | 6.4 | 17.7 | 0.00 | 0.00 | 0.00 | 30 | 1016.7 |
| 20260905155014 | 36 | 259 | 11.3 | 22.5 | 0.00 | 0.00 | 0.00 | 30 | 1016.8 |
| 20260905154522 | 36 | 232 | 11.3 | 22.5 | 0.00 | 0.00 | 0.00 | 30 | 1016.8 |
| 20260905154030 | 36 | 221 | 8.0 | 16.1 | 0.00 | 0.00 | 0.00 | 32 | 1016.7 |
| 20260905153554 | 36 | 211 | 4.8 | 12.9 | 0.00 | 0.00 | 0.00 | 32 | 1016.8 |
| 20260905153014 | 36 | 163 | 1.6 | 12.9 | 0.00 | 0.00 | 0.00 | 32 | 1016.7 |
| 20260905152522 | 36 | 203 | 9.7 | 19.3 | 0.00 | 0.00 | 0.00 | 33 | 1016.8 |
| 20260905152050 | 35 | 200 | 6.4 | 19.3 | 0.00 | 0.00 | 0.00 | 33 | 1016.8 |
| 20260905151024 | 35 | 195 | 9.7 | 14.5 | 0.00 | 0.00 | 0.00 | 33 | 1016.9 |
| 20260905150533 | 36 | 176 | 4.8 | 12.9 | 0.00 | 0.00 | 0.00 | 35 | 1016.9 |
| 20260905150015 | 35 | 130 | 3.2 | 12.9 | 0.00 | 0.00 | 0.00 | 35 | 1016.9 |
| 20260905145521 | 35 | 161 | 8.0 | 11.3 | 0.00 | 0.00 | 0.00 | 36 | 1016.9 |
| 20260905145021 | 36 | 29 | 4.8 | 9.7 | 0.00 | 0.00 | 0.00 | 35 | 1016.9 |
| 20260905144529 | 35 | 131 | 3.2 | 8.0 | 0.00 | 0.00 | 0.00 | 35 | 1017.0 |
| 20260905144017 | 35 | 147 | 3.2 | 9.7 | 0.00 | 0.00 | 0.00 | 35 | 1017.0 |
| 20260905143517 | 35 | 87 | 6.4 | 9.7 | 0.00 | 0.00 | 0.00 | 36 | 1017.1 |
| 20260905143012 | 35 | 146 | 4.8 | 9.7 | 0.00 | 0.00 | 0.00 | 37 | 1017.2 |
| 20260905142529 | 35 | 110 | 1.6 | 12.9 | 0.00 | 0.00 | 0.00 | 35 | 1017.2 |
| 20260905142016 | 35 | 277 | 6.4 | 14.5 | 0.00 | 0.00 | 0.00 | 36 | 1017.3 |
| 20260905141544 | 35 | 161 | 4.8 | 11.3 | 0.00 | 0.00 | 0.00 | 36 | 1017.3 |
| 20260905141028 | 35 | 234 | 1.6 | 6.4 | 0.00 | 0.00 | 0.00 | 36 | 1017.4 |
| 20260905140536 | 35 | 126 | 1.6 | 6.4 | 0.00 | 0.00 | 0.00 | 37 | 1017.4 |
| 20260905140023 | 34 | 185 | 1.6 | 6.4 | 0.00 | 0.00 | 0.00 | 38 | 1017.5 |
| 20260905135524 | 34 | 247 | 0.0 | 9.7 | 0.00 | 0.00 | 0.00 | 38 | 1017.5 |
| 20260905135032 | 34 | 168 | 4.8 | 9.7 | 0.00 | 0.00 | 0.00 | 38 | 1017.5 |
| 20260905134513 | 33 | 146 | 3.2 | 6.4 | 0.00 | 0.00 | 0.00 | 39 | 1017.5 |
| 20260905134057 | 33 | 139 | 4.8 | 6.4 | 0.00 | 0.00 | 0.00 | 40 | 1017.6 |
| 20260905133520 | 33 | 122 | 1.6 | 4.8 | 0.00 | 0.00 | 0.00 | 41 | 1017.6 |
| 20260905133028 | 33 | 248 | 1.6 | 6.4 | 0.00 | 0.00 | 0.00 | 41 | 1017.6 |
| 20260905132529 | 33 | 137 | 1.6 | 6.4 | 0.00 | 0.00 | 0.00 | 41 | 1017.6 |
| 20260905132036 | 33 | 131 | 3.2 | 9.7 | 0.00 | 0.00 | 0.00 | 41 | 1017.7 |
| 20260905131523 | 32 | 153 | 1.6 | 8.0 | 0.00 | 0.00 | 0.00 | 44 | 1017.7 |
| 20260905131022 | 32 | 140 | 0.0 | 6.4 | 0.00 | 0.00 | 0.00 | 45 | 1017.7 |
| 20260905130530 | 32 | 124 | 1.6 | 6.4 | 0.00 | 0.00 | 0.00 | 45 | 1017.9 |
| 20260905130011 | 32 | 99 | 1.6 | 6.4 | 0.00 | 0.00 | 0.00 | 46 | 1017.9 |
| 20260905125511 | 31 | 101 | 1.6 | 6.4 | 0.00 | 0.00 | 0.00 | 47 | 1018.0 |
| 20260905125017 | 31 | 114 | 3.2 | 6.4 | 0.00 | 0.00 | 0.00 | 47 | 1018.0 |
| 20260905124025 | 31 | 129 | 1.6 | 6.4 | 0.00 | 0.00 | 0.00 | 50 | 1018.0 |
| 20260905123526 | 31 | 98 | 1.6 | 8.0 | 0.00 | 0.00 | 0.00 | 50 | 1018.0 |
| 20260905123049 | 31 | 66 | 4.8 | 8.0 | 0.00 | 0.00 | 0.00 | 50 | 1018.0 |
| 20260905122516 | 31 | 118 | 3.2 | 9.7 | 0.00 | 0.00 | 0.00 | 50 | 1018.1 |
| 20260905122024 | 31 | 105 | 3.2 | 9.7 | 0.00 | 0.00 | 0.00 | 52 | 1018.1 |
| 20260905121021 | 30 | 265 | 3.2 | 9.7 | 0.00 | 0.00 | 0.00 | 54 | 1018.0 |
| 20260905120529 | 30 | 151 | 1.6 | 12.9 | 0.00 | 0.00 | 0.00 | 55 | 1018.2 |
| 20260905120017 | 30 | 117 | 8.0 | 12.9 | 0.00 | 0.00 | 0.00 | 55 | 1018.2 |
| 20260905115537 | 29 | 90 | 3.2 | 9.7 | 0.00 | 0.00 | 0.00 | 55 | 1018.2 |
| 20260905115021 | 29 | 46 | 4.8 | 12.9 | 0.00 | 0.00 | 0.00 | 56 | 1018.3 |
| 20260905113522 | 29 | 92 | 8.0 | 12.9 | 0.00 | 0.00 | 0.00 | 57 | 1018.3 |
| 20260905113030 | 29 | 98 | 6.4 | 12.9 | 0.00 | 0.00 | 0.00 | 57 | 1018.3 |
| 20260905112559 | 29 | 92 | 8.0 | 12.9 | 0.00 | 0.00 | 0.00 | 57 | 1018.4 |
| 20260905112018 | 28 | 137 | 3.2 | 9.7 | 0.00 | 0.00 | 0.00 | 58 | 1018.4 |
| 20260905111525 | 28 | 166 | 4.8 | 9.7 | 0.00 | 0.00 | 0.00 | 58 | 1018.5 |
| 20260905110540 | 28 | 157 | 1.6 | 8.0 | 0.00 | 0.00 | 0.00 | 57 | 1018.5 |
| 20260905110028 | 28 | 110 | 4.8 | 8.0 | 0.00 | 0.00 | 0.00 | 56 | 1018.6 |
| 20260905105529 | 28 | 122 | 3.2 | 8.0 | 0.00 | 0.00 | 0.00 | 56 | 1018.6 |
| 20260905105031 | 28 | 136 | 3.2 | 8.0 | 0.00 | 0.00 | 0.00 | 57 | 1018.7 |
| 20260905104512 | 27 | 108 | 3.2 | 6.4 | 0.00 | 0.00 | 0.00 | 58 | 1018.7 |
| 20260905104020 | 27 | 137 | 3.2 | 8.0 | 0.00 | 0.00 | 0.00 | 58 | 1018.7 |
| 20260905103529 | 27 | 93 | 1.6 | 11.3 | 0.00 | 0.00 | 0.00 | 59 | 1018.5 |
| 20260905103014 | 27 | 358 | 1.6 | 8.0 | 0.00 | 0.00 | 0.00 | 60 | 1018.6 |
| 20260905102522 | 27 | 56 | 1.6 | 4.8 | 0.00 | 0.00 | 0.00 | 62 | 1018.6 |
| 20260905102029 | 26 | 73 | 1.6 | 4.8 | 0.00 | 0.00 | 0.00 | 63 | 1018.6 |
| 20260905101537 | 26 | 72 | 0.0 | 8.0 | 0.00 | 0.00 | 0.00 | 64 | 1018.6 |
| 20260905101016 | 26 | 57 | 3.2 | 8.0 | 0.00 | 0.00 | 0.00 | 64 | 1018.6 |
| 20260905100532 | 26 | 74 | 1.6 | 6.4 | 0.00 | 0.00 | 0.00 | 65 | 1018.5 |
| 20260905100019 | 26 | 55 | 1.6 | 8.0 | 0.00 | 0.00 | 0.00 | 66 | 1018.5 |
| 20260905095527 | 25 | 105 | 1.6 | 9.7 | 0.00 | 0.00 | 0.00 | 67 | 1018.6 |
| 20260905095015 | 25 | 69 | 6.4 | 9.7 | 0.00 | 0.00 | 0.00 | 66 | 1018.5 |
| 20260905094516 | 25 | 90 | 3.2 | 9.7 | 0.00 | 0.00 | 0.00 | 66 | 1018.5 |
| 20260905094020 | 26 | 249 | 3.2 | 11.3 | 0.00 | 0.00 | 0.00 | 66 | 1018.5 |
| 20260905093548 | 26 | 107 | 6.4 | 11.3 | 0.00 | 0.00 | 0.00 | 66 | 1018.5 |
| 20260905093015 | 25 | 107 | 3.2 | 9.7 | 0.00 | 0.00 | 0.00 | 68 | 1018.5 |
| 20260905092011 | 25 | 46 | 3.2 | 6.4 | 0.00 | 0.00 | 0.00 | 69 | 1018.5 |
| 20260905091512 | 25 | 33 | 0.0 | 6.4 | 0.00 | 0.00 | 0.00 | 70 | 1018.5 |
| 20260905091018 | 25 | 41 | 1.6 | 4.8 | 0.00 | 0.00 | 0.00 | 71 | 1018.5 |
| 20260905090515 | 24 | 14 | 0.0 | 8.0 | 0.00 | 0.00 | 0.00 | 72 | 1018.3 |
| 20260905090022 | 23 | 30 | 4.8 | 8.0 | 0.00 | 0.00 | 0.00 | 72 | 1018.3 |
| 20260905085523 | 23 | 58 | 1.6 | 6.4 | 0.00 | 0.00 | 0.00 | 73 | 1018.4 |
| 20260905085030 | 23 | 6 | 3.2 | 8.0 | 0.00 | 0.00 | 0.00 | 73 | 1018.4 |
| 20260905084518 | 23 | 70 | 1.6 | 9.7 | 0.00 | 0.00 | 0.00 | 73 | 1018.3 |
| 20260905084025 | 23 | 185 | 4.8 | 11.3 | 0.00 | 0.00 | 0.00 | 74 | 1018.3 |
| 20260905083533 | 23 | 105 | 6.4 | 11.3 | 0.00 | 0.00 | 0.00 | 75 | 1018.3 |
| 20260905083014 | 23 | 218 | 4.8 | 11.3 | 0.00 | 0.00 | 0.00 | 76 | 1018.2 |
| 20260905082511 | 23 | 62 | 1.6 | 6.4 | 0.00 | 0.00 | 0.00 | 78 | 1018.2 |
| 20260905082019 | 23 | 70 | 3.2 | 6.4 | 0.00 | 0.00 | 0.00 | 78 | 1018.2 |
| 20260905081526 | 23 | 78 | 4.8 | 6.4 | 0.00 | 0.00 | 0.00 | 78 | 1018.2 |
| 20260905081013 | 23 | 63 | 3.2 | 4.8 | 0.00 | 0.00 | 0.00 | 79 | 1018.2 |
| 20260905080515 | 23 | 355 | 1.6 | 4.8 | 0.00 | 0.00 | 0.00 | 80 | 1018.2 |
| 20260905080029 | 23 | 14 | 1.6 | 4.8 | 0.00 | 0.00 | 0.00 | 80 | 1018.2 |
| 20260905075013 | 23 | 167 | 0.0 | 1.6 | 0.00 | 0.00 | 0.00 | 80 | 1018.2 |
| 20260905074521 | 23 | 167 | 0.0 | 3.2 | 0.00 | 0.00 | 0.00 | 80 | 1018.1 |
| 20260905074023 | 22 | 190 | 0.0 | 4.8 | 0.00 | 0.00 | 0.00 | 81 | 1018.0 |
| 20260905073551 | 22 | 190 | 0.0 | 4.8 | 0.00 | 0.00 | 0.00 | 81 | 1018.0 |
| 20260905073036 | 22 | 190 | 3.2 | 6.4 | 0.00 | 0.00 | 0.00 | 81 | 1018.0 |
| 20260905072513 | 22 | 190 | 1.6 | 9.7 | 0.00 | 0.00 | 0.00 | 80 | 1018.0 |
| 20260905072015 | 23 | 190 | 6.4 | 9.7 | 0.00 | 0.00 | 0.00 | 78 | 1018.0 |
| 20260905071530 | 23 | 190 | 8.0 | 9.7 | 0.00 | 0.00 | 0.00 | 76 | 1017.9 |
| 20260905071019 | 23 | 190 | 1.6 | 6.4 | 0.00 | 0.00 | 0.00 | 73 | 1017.9 |
| 20260905070547 | 23 | 190 | 3.2 | 6.4 | 0.00 | 0.00 | 0.00 | 72 | 1017.8 |
| 20260905070034 | 24 | 190 | 0.0 | 1.6 | 0.00 | 0.00 | 0.00 | 70 | 1017.7 |
| 20260905065515 | 24 | 302 | 526.3 | 1.6 | 0.00 | 0.00 | 0.00 | 66 | 1017.7 |
| 20260905065023 | 25 | 0.0 | 0.0 | 0.00 | 0.00 | 0.00 | 63 | 1017.6 | |
| 20260905064530 | 25 | 0.0 | 526.3 | 0.00 | 0.00 | 0.00 | 62 | 1017.4 | |
| 20260905064033 | 25 | 0.0 | 0.0 | 0.00 | 0.00 | 0.00 | 62 | 1017.4 | |
| 20260905063533 | 25 | 0.0 | 0.0 | 0.00 | 0.00 | 0.00 | 62 | 1017.4 | |
| 20260905063020 | 25 | 0.0 | 0.0 | 0.00 | 0.00 | 0.00 | 62 | 1017.4 | |
| 20260905062518 | 25 | 0.0 | 0.0 | 0.00 | 0.00 | 0.00 | 61 | 1017.3 | |
| 20260905062024 | 25 | 0.0 | 0.0 | 0.00 | 0.00 | 0.00 | 61 | 1017.2 | |
| 20260905061511 | 25 | 0.0 | 0.0 | 0.00 | 0.00 | 0.00 | 61 | 1017.2 | |
| 20260905061017 | 25 | 0.0 | 0.0 | 0.00 | 0.00 | 0.00 | 61 | 1017.2 | |
| 20260905060526 | 25 | 0.0 | 0.0 | 0.00 | 0.00 | 0.00 | 61 | 1017.0 | |
| 20260905060014 | 25 | 0.0 | 0.0 | 0.00 | 0.00 | 0.00 | 62 | 1017.1 | |
| 20260905055515 | 25 | 0.0 | 0.0 | 0.00 | 0.00 | 0.00 | 62 | 1017.1 | |
| 20260905055016 | 25 | 0.0 | 0.0 | 0.00 | 0.00 | 0.00 | 62 | 1017.1 | |
| 20260905054551 | 25 | 0.0 | 0.0 | 0.00 | 0.00 | 0.00 | 62 | 1017.0 | |
| 20260905054056 | 25 | 0.0 | 0.0 | 0.00 | 0.00 | 0.00 | 62 | 1017.1 | |
| 20260905053514 | 24 | 0.0 | 0.0 | 0.00 | 0.00 | 0.00 | 62 | 1017.0 | |
| 20260905052524 | 24 | 0.0 | 0.0 | 0.00 | 0.00 | 0.00 | 63 | 1017.1 | |
| 20260905052032 | 24 | 0.0 | 0.0 | 0.00 | 0.00 | 0.00 | 63 | 1017.0 | |
| 20260905051539 | 24 | 0.0 | 0.0 | 0.00 | 0.00 | 0.00 | 63 | 1017.0 | |
| 20260905051024 | 24 | 0.0 | 0.0 | 0.00 | 0.00 | 0.00 | 63 | 1017.1 | |
| 20260905050533 | 24 | 0.0 | 0.0 | 0.00 | 0.00 | 0.00 | 63 | 1017.0 | |
| 20260905050016 | 24 | 0.0 | 0.0 | 0.00 | 0.00 | 0.00 | 63 | 1017.1 | |
| 20260905045516 | 24 | 0.0 | 0.0 | 0.00 | 0.00 | 0.00 | 63 | 1017.2 | |
| 20260905045023 | 24 | 0.0 | 0.0 | 0.00 | 0.00 | 0.00 | 63 | 1017.3 | |
| 20260905044512 | 24 | 0.0 | 0.0 | 0.00 | 0.00 | 0.00 | 63 | 1017.3 | |
| 20260905044018 | 24 | 0.0 | 0.0 | 0.00 | 0.00 | 0.00 | 62 | 1017.3 | |
| 20260905043526 | 24 | 0.0 | 0.0 | 0.00 | 0.00 | 0.00 | 62 | 1017.3 | |
| 20260905043014 | 24 | 0.0 | 0.0 | 0.00 | 0.00 | 0.00 | 62 | 1017.3 | |
| 20260905042511 | 24 | 0.0 | 0.0 | 0.00 | 0.00 | 0.00 | 62 | 1017.3 | |
| 20260905042019 | 24 | 0.0 | 0.0 | 0.00 | 0.00 | 0.00 | 62 | 1017.2 | |
| 20260905041547 | 25 | 0.0 | 0.0 | 0.00 | 0.00 | 0.00 | 61 | 1017.2 | |
| 20260905041033 | 25 | 0.0 | 0.0 | 0.00 | 0.00 | 0.00 | 61 | 1017.3 | |
| 20260905040541 | 25 | 0.0 | 0.0 | 0.00 | 0.00 | 0.00 | 61 | 1017.3 | |
| 20260905040016 | 25 | 0.0 | 0.0 | 0.00 | 0.00 | 0.00 | 61 | 1017.1 | |
| 20260905035514 | 25 | 0.0 | 0.0 | 0.00 | 0.00 | 0.00 | 61 | 1017.2 | |
| 20260905035040 | 24 | 0.0 | 0.0 | 0.00 | 0.00 | 0.00 | 61 | 1017.1 | |
| 20260905034025 | 24 | 0.0 | 0.0 | 0.00 | 0.00 | 0.00 | 62 | 1017.0 | |
| 20260905033520 | 24 | 0.0 | 0.0 | 0.00 | 0.00 | 0.00 | 62 | 1017.0 | |
| 20260905033016 | 24 | 0.0 | 0.0 | 0.00 | 0.00 | 0.00 | 62 | 1017.1 | |
| 20260905032524 | 25 | 0.0 | 0.0 | 0.00 | 0.00 | 0.00 | 62 | 1017.1 | |
| 20260905032025 | 25 | 0.0 | 0.0 | 0.00 | 0.00 | 0.00 | 61 | 1017.0 | |
| 20260905031513 | 25 | 0.0 | 0.0 | 0.00 | 0.00 | 0.00 | 60 | 1017.1 | |
| 20260905031019 | 25 | 0.0 | 0.0 | 0.00 | 0.00 | 0.00 | 60 | 1017.1 | |
| 20260905030530 | 25 | 0.0 | 0.0 | 0.00 | 0.00 | 0.00 | 59 | 1017.1 | |
| 20260905030030 | 25 | 0.0 | 0.0 | 0.00 | 0.00 | 0.00 | 58 | 1017.1 | |
| 20260905025511 | 25 | 0.0 | 0.0 | 0.00 | 0.00 | 0.00 | 57 | 1017.1 | |
| 20260905025019 | 25 | 0.0 | 0.0 | 0.00 | 0.00 | 0.00 | 56 | 1017.2 | |
| 20260905024525 | 25 | 0.0 | 0.0 | 0.00 | 0.00 | 0.00 | 56 | 1017.2 | |
| 20260905024032 | 25 | 0.0 | 0.0 | 0.00 | 0.00 | 0.00 | 56 | 1017.2 | |
| 20260905023519 | 25 | 0.0 | 0.0 | 0.00 | 0.00 | 0.00 | 56 | 1017.2 | |
| 20260905022518 | 25 | 0.0 | 0.0 | 0.00 | 0.00 | 0.00 | 58 | 1017.2 | |
| 20260905022041 | 25 | 0.0 | 0.0 | 0.00 | 0.00 | 0.00 | 60 | 1017.4 | |
| 20260905021521 | 24 | 0.0 | 0.0 | 0.00 | 0.00 | 0.00 | 61 | 1017.5 | |
| 20260905021055 | 25 | 0.0 | 0.0 | 0.00 | 0.00 | 0.00 | 61 | 1017.4 | |
| 20260905020518 | 25 | 0.0 | 0.0 | 0.00 | 0.00 | 0.00 | 61 | 1017.6 | |
| 20260905020025 | 24 | 0.0 | 0.0 | 0.00 | 0.00 | 0.00 | 61 | 1017.6 | |
| 20260905015546 | 25 | 0.0 | 0.0 | 0.00 | 0.00 | 0.00 | 61 | 1017.6 | |
| 20260905015039 | 25 | 0.0 | 0.0 | 0.00 | 0.00 | 0.00 | 58 | 1017.4 | |
| 20260905014517 | 25 | 0.0 | 0.0 | 0.00 | 0.00 | 0.00 | 58 | 1017.2 | |
| 20260905014025 | 25 | 0.0 | 0.0 | 0.00 | 0.00 | 0.00 | 59 | 1017.3 | |
| 20260905013522 | 25 | 0.0 | 0.0 | 0.00 | 0.00 | 0.00 | 60 | 1017.4 | |
| 20260905012526 | 25 | 0.0 | 0.0 | 0.00 | 0.00 | 0.00 | 58 | 1017.6 | |
| 20260905012027 | 25 | 0.0 | 0.0 | 0.00 | 0.00 | 0.00 | 57 | 1017.5 | |
| 20260905011536 | 25 | 0.0 | 0.0 | 0.00 | 0.00 | 0.00 | 56 | 1017.6 | |
| 20260905011022 | 25 | 0.0 | 0.0 | 0.00 | 0.00 | 0.00 | 56 | 1017.6 | |
| 20260905010511 | 25 | 0.0 | 0.0 | 0.00 | 0.00 | 0.00 | 55 | 1017.7 | |
| 20260905010018 | 26 | 0.0 | 0.0 | 0.00 | 0.00 | 0.00 | 55 | 1017.7 | |
| 20260905005526 | 26 | 0.0 | 0.0 | 0.00 | 0.00 | 0.00 | 55 | 1017.6 | |
| 20260905005034 | 26 | 0.0 | 0.0 | 0.00 | 0.00 | 0.00 | 56 | 1017.7 | |
| 20260905004515 | 26 | 0.0 | 0.0 | 0.00 | 0.00 | 0.00 | 57 | 1017.9 | |
| 20260905004019 | 25 | 0.0 | 0.0 | 0.00 | 0.00 | 0.00 | 59 | 1018.0 | |
| 20260905003519 | 25 | 0.0 | 0.0 | 0.00 | 0.00 | 0.00 | 59 | 1018.1 | |
| 20260905003055 | 25 | 0.0 | 0.0 | 0.00 | 0.00 | 0.00 | 59 | 1018.1 | |
| 20260905002534 | 26 | 0.0 | 0.0 | 0.00 | 0.00 | 0.00 | 60 | 1018.2 | |
| 20260905002014 | 26 | 0.0 | 0.0 | 0.00 | 0.00 | 0.00 | 60 | 1018.2 | |
| 20260905001523 | 26 | 0.0 | 0.0 | 0.00 | 0.00 | 0.00 | 60 | 1018.2 | |
| 20260905001016 | 26 | 0.0 | 0.0 | 0.00 | 0.00 | 0.00 | 60 | 1018.2 | |
| 20260905000526 | 26 | 0.0 | 0.0 | 0.00 | 0.00 | 0.00 | 60 | 1018.1 | |
| 20260905000013 | 26 | 0.0 | 0.0 | 0.00 | 0.00 | 0.00 | 60 | 1018.2 | |
| 20260904235543 | 26 | 0.0 | 0.0 | 0.00 | 0.00 | 0.00 | 60 | 1018.2 | |
| 20260904235028 | 26 | 0.0 | 0.0 | 0.00 | 0.00 | 0.00 | 60 | 1018.2 | |
| 20260904234515 | 26 | 0.0 | 0.0 | 0.00 | 0.00 | 0.00 | 61 | 1018.3 | |
| 20260904234012 | 25 | 0.0 | 0.0 | 0.00 | 0.00 | 0.00 | 61 | 1018.4 | |
| 20260904233518 | 25 | 0.0 | 0.0 | 0.00 | 0.00 | 0.00 | 62 | 1018.4 | |
| 20260904233029 | 25 | 0.0 | 0.0 | 0.00 | 0.00 | 0.00 | 62 | 1018.5 | |
| 20260904232529 | 25 | 0.0 | 0.0 | 0.00 | 0.00 | 0.00 | 62 | 1018.5 | |
| 20260904232017 | 25 | 0.0 | 0.0 | 0.00 | 0.00 | 0.00 | 62 | 1018.5 | |
| 20260904231525 | 25 | 0.0 | 0.0 | 0.00 | 0.00 | 0.00 | 62 | 1018.4 | |
| 20260904231025 | 26 | 0.0 | 0.0 | 0.00 | 0.00 | 0.00 | 61 | 1018.3 | |
| 20260904230522 | 26 | 0.0 | 0.0 | 0.00 | 0.00 | 0.00 | 60 | 1018.4 | |
| 20260904230031 | 26 | 0.0 | 0.0 | 0.00 | 0.00 | 0.00 | 59 | 1018.3 | |
| 20260904225532 | 26 | 0.0 | 0.0 | 0.00 | 0.00 | 0.00 | 59 | 1018.2 | |
| 20260904225019 | 26 | 0.0 | 0.0 | 0.00 | 0.00 | 0.00 | 60 | 1018.4 | |
| 20260904224543 | 26 | 0.0 | 0.0 | 0.00 | 0.00 | 0.00 | 60 | 1018.4 | |
| 20260904224023 | 26 | 0.0 | 0.0 | 0.00 | 0.00 | 0.00 | 60 | 1018.5 | |
| 20260904223518 | 26 | 0.0 | 0.0 | 0.00 | 0.00 | 0.00 | 60 | 1018.4 | |
| 20260904223026 | 26 | 0.0 | 0.0 | 0.00 | 0.00 | 0.00 | 61 | 1018.3 | |
| 20260904222528 | 26 | 0.0 | 0.0 | 0.00 | 0.00 | 0.00 | 62 | 1018.3 | |
| 20260904222037 | 26 | 0.0 | 0.0 | 0.00 | 0.00 | 0.00 | 63 | 1018.5 | |
| 20260904221518 | 26 | 0.0 | 0.0 | 0.00 | 0.00 | 0.00 | 63 | 1018.5 | |
| 20260904221025 | 26 | 0.0 | 0.0 | 0.00 | 0.00 | 0.00 | 64 | 1018.5 | |
| 20260904220534 | 27 | 0.0 | 0.0 | 0.00 | 0.00 | 0.00 | 64 | 1018.5 | |
| 20260904220013 | 27 | 0.0 | 0.0 | 0.00 | 0.00 | 0.00 | 64 | 1018.4 | |
| 20260904215521 | 27 | 0.0 | 0.0 | 0.00 | 0.00 | 0.00 | 64 | 1018.4 | |
| 20260904215050 | 27 | 0.0 | 0.0 | 0.00 | 0.00 | 0.00 | 62 | 1018.5 | |
| 20260904214018 | 27 | 0.0 | 0.0 | 0.00 | 0.00 | 0.00 | 63 | 1018.4 | |
| 20260904213529 | 28 | 0.0 | 0.0 | 0.00 | 0.00 | 0.00 | 61 | 1018.5 | |
| 20260904213028 | 28 | 0.0 | 0.0 | 0.00 | 0.00 | 0.00 | 58 | 1018.5 | |
| 20260904212557 | 28 | 0.0 | 0.0 | 0.00 | 0.00 | 0.00 | 55 | 1018.6 |